Temperature
17 17 17 17 17 17 17 17 17 17 17 18 18 18 17 17 17 17 17 17 17 17 17 17 17 17 16 16 16 16 16 16 16 16 16 16 16 15
17 17 17 17 17 17 17 17 17 17 17 17 17 17 17 17 17 17 17 17 16 17 17 17 17 16 16 16 16 16 16 16 16 16 15 15 15 15
17 16 16 17 17 17 17 17 16 16 16 17 17 17 17 17 17 17 16 16 16 16 16 16 16 16 16 16 16 16 16 15 15 15 15 15 15 15
16 16 16 16 16 16 16 16 16 16 16 16 16 16 16 16 16 16 16 16 16 16 16 16 16 16 16 16 16 16 15 15 15 15 15 15 15 15
16 16 16 16 16 16 16 16 16 15 15 15 16 16 16 16 16 16 15 15 15 15 16 16 16 16 16 15 15 15 15 15 15 15 15 15 15 15
16 15 15 15 15 15 15 15 15 15 15 15 15 15 15 15 15 15 15 15 15 15 15 15 15 15 15 15 15 15 15 15 15 14 14 14 14 14
15 15 15 15 15 15 15 15 15 15 15 14 14 15 15 15 15 15 14 14 15 14 14 15 14 14 15 14 14 14 14 14 14 14 14 14 14 14
15 15 15 15 15 15 15 15 15 14 14 14 14 14 14 14 14 14 14 14 14 14 14 14 14 14 14 14 14 14 14 14 14 14 14 14 14 14
15 15 14 14 15 15 15 15 15 14 14 14 14 14 14 14 14 14 14 13 13 14 13 13 14 13 14 14 14 14 14 14 14 14 13 13 14 14
15 15 15 14 14 14 14 14 14 14 14 14 14 14 14 14 14 13 13 13 13 13 13 13 13 13 13 13 13 13 13 13 13 13 13 13 13 13
15 15 14 14 14 14 14 14 14 14 14 14 14 14 14 14 13 13 13 13 12 13 13 13 13 13 13 13 13 13 13 13 13 13 13 13 13 13
14 14 14 14 14 14 14 14 14 14 14 14 14 14 14 13 13 13 13 12 12 12 13 13 13 12 12 12 12 13 13 12 12 12 12 12 12 12
14 14 14 14 14 14 14 14 14 14 13 13 13 13 13 13 13 13 13 12 12 12 12 12 12 12 12 12 12 12 12 12 12 12 12 12 12 12
14 14 14 14 14 14 14 14 14 13 13 13 13 13 13 13 12 12 12 12 12 12 12 12 12 12 12 12 12 12 12 12 12 12 12 12 12 12
14 14 14 14 14 14 14 13 13 13 13 13 12 12 12 12 12 12 12 12 12 12 12 12 12 12 12 12 11 12 11 12 12 12 12 11 11 11
13 13 13 13 13 13 13 13 13 13 12 12 12 12 12 12 12 11 11 11 11 12 12 12 12 12 12 12 11 11 11 11 11 11 11 11 11 11
13 13 13 13 13 13 13 13 12 12 12 12 12 11 11 11 11 11 11 11 11 11 11 11 11 11 11 11 11 11 11 11 11 11 11 11 11 11
13 13 13 12 12 12 12 12 12 12 12 11 11 11 11 11 11 11 11 11 11 11 11 11 11 11 11 11 11 11 11 11 11 11 11 10 10 10
12 12 12 12 12 12 12 11 11 11 11 11 11 11 11 11 11 11 11 10 10 10 10 10 10 10 10 10 10 11 10 10 10 10 10 10 10 10
12 12 12 11 11 11 11 11 11 11 11 11 11 11 10 10 10 10 10 10 10 10 10 10 10 10 10 10 10 10 10 10 10 10 10 10 10 9
12 11 11 11 11 11 11 11 11 11 11 11 10 10 10 10 10 10 10 10 10 10 10 10 10 10 10 10 10 10 10 10 10 10 10 10 9 9
11 11 11 11 11 11 10 10 10 10 10 10 10 10 10 10 10 10 10 10 10 10 10 10 10 10 10 10 10 10 10 10 10 10 10 10 9 9
11 11 10 10 10 10 10 10 10 10 10 9 9 9 9 9 9 9 9 9 9 9 9 9 9 10 10 10 10 10 10 9 9 9 9 9 9 9
Wind_Speed
3 3 3 3 3 3 2 2 3 3 4 3 2 2 2 2 5 6 5 9 12 12 12 12 11 11 11 11 10 10 10 10 10 10 10 10 10 11
2 2 3 3 3 4 3 3 3 3 4 3 3 2 1 2 4 5 5 9 12 13 14 13 12 12 11 11 10 11 11 11 11 11 11 11 11 11
3 2 3 3 3 4 3 3 3 3 4 4 2 2 1 1 1 3 4 6 7 12 13 13 13 12 12 11 11 10 10 10 10 11 11 11 12 12
3 3 3 3 3 3 4 4 4 3 3 5 4 3 3 3 3 3 4 5 4 8 11 12 13 13 13 12 12 11 10 10 10 10 10 10 10 11
4 4 3 3 4 3 4 4 4 4 3 4 4 3 3 3 2 4 4 3 4 5 8 10 11 12 12 13 13 12 12 11 10 10 9 9 10 10
4 4 3 3 3 4 5 4 4 5 5 4 4 4 3 3 2 3 3 3 3 3 4 5 9 10 12 13 14 13 13 12 12 11 10 10 10 10
4 4 4 4 4 4 4 3 4 4 4 4 4 4 3 3 3 3 4 3 3 3 2 3 4 4 6 10 12 13 13 13 13 12 12 11 11 11
4 4 4 5 4 4 5 5 5 5 4 4 4 4 4 4 3 4 4 4 4 2 2 4 3 3 4 6 9 12 13 13 13 12 12 12 11 11
4 4 5 4 2 3 4 7 7 8 7 5 6 6 5 4 4 5 4 4 5 4 3 5 3 4 4 6 9 11 12 13 13 12 11 11 11 11
4 4 4 3 4 4 5 5 5 6 7 6 6 6 5 4 4 5 6 6 5 4 3 4 3 3 4 3 7 9 11 12 12 12 12 12 11 11
4 3 3 3 3 4 4 6 6 6 7 8 7 7 6 7 5 4 4 4 5 4 3 3 3 3 3 3 6 9 11 12 12 12 12 12 11 10
4 3 3 3 4 4 5 5 6 6 6 6 5 6 6 6 6 5 4 4 4 4 3 2 3 3 3 3 3 5 7 10 12 13 12 12 10 7
4 3 2 4 5 6 6 6 7 6 6 6 5 4 3 3 2 2 3 4 4 4 3 2 3 3 3 3 2 3 4 4 6 8 10 11 11 8
5 4 3 4 6 8 7 7 8 6 4 4 4 3 3 2 2 3 2 3 3 5 4 3 3 3 4 4 3 2 3 3 3 3 5 8 10 11
4 5 5 6 6 6 8 8 6 4 4 4 3 3 3 3 2 2 2 2 3 4 4 3 4 4 4 4 4 3 3 3 3 2 3 3 3 4
4 5 7 9 7 6 5 5 4 3 3 3 3 3 2 2 2 2 2 2 3 3 3 3 3 4 4 5 4 4 3 2 2 2 2 2 2 2
3 4 4 3 3 3 3 2 2 2 3 3 3 3 3 2 2 2 2 3 3 3 3 3 2 3 3 3 4 4 3 2 2 2 1 2 1 1
2 3 4 3 3 3 2 2 2 2 3 3 3 2 3 3 2 2 2 3 3 3 3 2 2 2 2 2 3 3 3 2 2 1 1 1 1 1
3 4 3 3 3 3 2 3 2 2 2 3 3 2 2 2 2 2 2 2 3 3 3 2 1 2 3 4 3 3 3 2 1 1 1 1 1 1
3 3 3 3 3 2 2 3 3 2 2 2 2 2 2 2 3 3 2 2 3 3 3 2 2 2 3 4 3 2 3 2 1 1 2 1 1 2
2 2 2 2 2 2 2 2 3 3 2 2 2 1 2 2 3 3 2 3 3 3 3 3 3 4 3 2 2 2 1 2 3 3 2 2 1 1
2 1 1 2 2 1 2 2 2 2 2 2 2 2 2 2 2 2 2 2 2 3 3 3 2 3 2 2 3 2 1 1 2 2 2 2 2 2
1 1 1 1 1 1 1 2 2 2 2 2 2 2 2 2 2 3 3 2 2 3 3 3 2 3 3 2 2 1 1 1 1 0 1 2 3 4
Wind_Direction
274 281 280 275 275 266 258 258 264 282 274 266 268 245 213 194 193 199 196 211 215 217 218 218 220 223 225 225 226 226 227 229 229 228 228 229 232 234
261 266 275 283 295 287 273 262 259 260 270 275 277 265 301 273 205 212 212 217 219 216 216 216 216 217 220 222 222 223 226 228 229 230 230 230 232 236
279 277 274 271 280 293 296 283 277 273 276 291 296 305 291 277 259 244 235 223 219 220 219 218 216 215 216 217 217 217 221 225 229 232 233 233 234 236
272 269 274 282 288 289 295 289 285 279 275 286 288 285 275 245 232 245 259 252 224 221 217 218 219 217 216 216 215 216 221 224 227 229 231 235 236 237
272 269 265 275 286 287 284 289 292 291 275 274 277 274 271 264 257 260 261 258 255 230 220 221 223 221 218 216 213 216 219 223 225 226 229 232 234 236
271 272 264 265 281 288 281 285 289 289 282 280 280 276 272 276 280 270 269 260 262 252 236 228 225 223 218 215 216 216 218 221 224 226 228 230 234 236
277 273 260 246 252 261 276 287 287 283 285 282 286 293 293 293 280 274 278 278 266 256 244 244 224 221 214 219 221 222 222 224 226 229 230 232 235 238
282 283 268 245 248 255 261 268 271 273 282 279 283 285 289 294 290 287 288 287 283 261 260 265 247 237 228 215 217 219 221 223 227 230 233 235 236 238
279 274 279 284 274 275 268 266 263 263 260 263 273 277 277 279 277 277 277 275 276 265 257 266 255 247 236 232 218 213 219 221 224 229 233 236 238 236
270 262 262 279 289 297 282 274 266 265 260 255 257 267 277 270 259 262 268 267 271 264 243 260 260 253 251 214 217 212 215 221 225 226 231 235 237 235
262 258 254 264 301 305 284 280 276 276 272 270 263 260 264 263 254 261 265 267 274 268 247 252 262 267 252 234 214 214 218 224 225 226 230 234 236 235
262 244 234 243 266 270 268 274 275 282 291 288 277 267 257 253 246 230 240 258 269 268 250 250 256 266 266 239 218 210 224 233 231 229 229 230 227 223
274 266 250 240 257 260 261 266 267 277 281 274 270 264 257 253 249 246 245 251 261 266 268 269 268 266 257 266 256 227 221 236 227 231 230 229 220 209
285 282 278 272 268 264 259 261 270 278 273 273 273 271 272 270 269 267 265 258 251 256 260 259 260 263 266 272 270 241 234 233 227 227 218 220 222 219
280 293 290 277 267 259 248 252 260 266 271 270 275 282 276 267 263 263 268 267 266 275 275 248 247 258 257 262 271 263 255 251 230 218 214 208 217 211
278 287 272 262 255 258 259 250 246 257 264 271 275 273 269 268 275 278 272 269 271 276 272 260 248 249 255 259 264 270 257 241 240 233 222 231 225 216
279 273 272 267 258 252 252 246 245 252 267 273 279 286 284 278 277 290 282 281 274 278 288 286 263 253 255 265 273 278 274 265 250 222 226 247 243 234
264 269 277 281 288 291 286 274 264 271 270 267 270 269 275 276 278 288 288 288 290 292 290 292 295 289 283 288 269 271 275 270 272 237 211 208 266 300
244 257 267 279 289 296 299 295 285 274 269 267 267 271 280 287 287 289 298 307 304 303 300 294 282 274 276 279 270 257 263 260 282 303 256 199 219 248
248 260 272 276 279 290 303 306 306 307 298 292 288 290 299 296 293 287 279 279 286 295 305 309 298 279 268 273 276 273 257 247 226 237 246 224 186 167
280 289 304 309 308 312 317 316 312 305 307 305 311 316 310 293 292 295 291 292 287 294 301 299 284 268 259 266 279 279 266 227 216 221 226 221 219 204
291 307 313 323 325 330 330 321 321 333 344 342 336 322 313 302 297 300 304 310 304 302 301 293 282 284 273 268 268 270 260 235 230 230 247 241 215 216
299 310 307 310 327 328 323 316 324 339 342 335 335 333 333 332 324 311 302 298 292 287 289 291 297 295 285 266 265 263 278 269 231 119 338 277 214 203
Height
1519 1519 1519 1520 1520 1521 1521 1520 1520 1519 1518 1518 1518 1517 1517 1517 1515 1515 1515 1514 1515 1515 1514 1514 1514 1514 1514 1514 1514 1515 1515 1516 1516 1517 1517 1518 1518 1518
1516 1516 1516 1516 1516 1517 1517 1517 1517 1517 1516 1515 1514 1514 1514 1513 1513 1512 1512 1511 1511 1511 1511 1510 1510 1510 1510 1510 1510 1511 1511 1512 1512 1512 1513 1513 1514 1514
1514 1514 1513 1513 1513 1514 1514 1514 1514 1513 1512 1511 1511 1511 1510 1509 1509 1508 1508 1507 1507 1507 1507 1506 1506 1506 1506 1506 1506 1507 1507 1507 1508 1508 1508 1509 1509 1509
1511 1511 1510 1511 1510 1510 1510 1510 1510 1510 1509 1508 1507 1507 1507 1506 1506 1505 1504 1504 1503 1503 1502 1502 1502 1502 1501 1502 1502 1502 1503 1503 1503 1503 1504 1504 1504 1505
1509 1508 1508 1508 1507 1507 1507 1507 1507 1506 1506 1505 1504 1504 1503 1503 1502 1501 1500 1500 1499 1499 1499 1498 1498 1498 1497 1497 1497 1498 1498 1498 1498 1499 1499 1499 1499 1500
1506 1506 1505 1505 1505 1504 1504 1503 1503 1503 1502 1502 1501 1500 1500 1499 1498 1497 1496 1496 1496 1495 1495 1494 1494 1493 1493 1493 1493 1493 1493 1494 1494 1494 1494 1494 1494 1494
1503 1503 1503 1502 1502 1501 1501 1500 1500 1499 1499 1498 1497 1496 1496 1495 1495 1494 1493 1492 1492 1492 1491 1490 1490 1489 1489 1488 1488 1488 1489 1489 1489 1489 1489 1489 1489 1489
1500 1499 1499 1499 1498 1498 1498 1497 1497 1496 1495 1494 1493 1492 1491 1491 1491 1490 1490 1489 1488 1488 1487 1485 1485 1484 1484 1484 1484 1484 1484 1484 1484 1484 1484 1484 1484 1484
1497 1496 1496 1496 1495 1494 1494 1493 1492 1492 1491 1491 1489 1488 1488 1487 1487 1486 1485 1485 1484 1483 1483 1481 1481 1480 1480 1480 1480 1480 1480 1480 1479 1479 1479 1478 1478 1478
1493 1492 1492 1492 1491 1491 1490 1489 1488 1487 1487 1486 1486 1485 1484 1483 1482 1482 1481 1481 1480 1479 1479 1477 1477 1476 1476 1476 1476 1476 1476 1475 1475 1475 1474 1474 1473 1473
1489 1489 1488 1487 1487 1487 1486 1485 1484 1483 1483 1483 1482 1481 1480 1479 1478 1477 1477 1476 1475 1474 1475 1474 1473 1472 1472 1471 1472 1472 1472 1471 1471 1470 1470 1469 1469 1468
1485 1485 1484 1483 1483 1482 1482 1481 1479 1479 1478 1477 1477 1476 1475 1474 1473 1473 1472 1471 1471 1470 1470 1470 1469 1469 1468 1468 1468 1467 1467 1466 1466 1466 1466 1465 1465 1464
1482 1481 1480 1480 1479 1478 1477 1476 1476 1475 1474 1473 1473 1472 1471 1470 1469 1469 1468 1467 1467 1465 1466 1466 1465 1465 1465 1463 1463 1463 1463 1462 1462 1461 1461 1461 1461 1460
1478 1478 1477 1476 1475 1474 1473 1472 1472 1471 1470 1469 1469 1468 1467 1466 1465 1464 1464 1463 1462 1462 1461 1462 1461 1461 1460 1459 1459 1458 1458 1458 1458 1458 1457 1457 1457 1457
1475 1474 1474 1473 1472 1471 1470 1469 1468 1467 1466 1466 1465 1464 1463 1462 1462 1461 1460 1459 1459 1458 1458 1457 1457 1456 1456 1455 1455 1454 1454 1454 1454 1454 1454 1453 1453 1453
1471 1470 1470 1469 1468 1467 1466 1465 1465 1464 1463 1462 1461 1460 1460 1459 1458 1457 1456 1455 1455 1454 1454 1454 1453 1453 1451 1451 1451 1451 1451 1450 1450 1450 1450 1450 1449 1449
1467 1466 1465 1465 1465 1464 1463 1462 1461 1460 1460 1459 1458 1457 1456 1456 1455 1454 1453 1453 1452 1451 1450 1450 1450 1449 1448 1448 1447 1447 1447 1447 1447 1447 1446 1446 1446 1445
1464 1463 1462 1462 1462 1461 1460 1459 1458 1457 1457 1456 1455 1454 1453 1453 1452 1451 1451 1450 1450 1449 1448 1447 1446 1445 1445 1445 1445 1444 1444 1444 1444 1444 1443 1443 1442 1443
1460 1460 1460 1460 1459 1458 1458 1457 1456 1455 1454 1453 1452 1452 1451 1450 1450 1449 1448 1447 1447 1446 1445 1444 1444 1443 1442 1442 1441 1442 1442 1441 1441 1441 1441 1440 1440 1440
1458 1457 1457 1457 1456 1456 1455 1454 1453 1452 1451 1451 1450 1449 1448 1447 1447 1446 1446 1445 1445 1444 1443 1442 1442 1441 1441 1440 1439 1439 1439 1439 1438 1438 1438 1438 1438 1438
1455 1455 1454 1454 1454 1453 1452 1451 1450 1449 1449 1448 1447 1446 1445 1445 1445 1444 1444 1443 1442 1441 1440 1440 1439 1439 1439 1438 1437 1436 1436 1436 1436 1436 1436 1436 1436 1436
1453 1452 1452 1452 1451 1450 1449 1448 1448 1447 1446 1445 1444 1444 1443 1443 1442 1442 1441 1441 1440 1439 1439 1438 1438 1437 1437 1436 1435 1434 1434 1434 1434 1434 1434 1434 1434 1433
1451 1450 1450 1449 1449 1448 1447 1446 1445 1445 1444 1443 1442 1441 1440 1440 1440 1439 1439 1438 1438 1438 1437 1436 1436 1435 1434 1434 1433 1432 1432 1432 1432 1431 1432 1432 1432 1433